HSU-SAT1 (53462 NORAD) Tracking and Keplerian Element Data

This shows tracking and keplerian element data for the satellite.

Feedback or suggestion? Click here.




ElementValue
Catalog53462
NameHSU-SAT1
Epoch Orbit1565
Epoch Day324.92404113
Epoch Year2022
RAAN276.4294
Inclination51.637
Eccentricity0.0009677
Argument of Perigee122.436
Mean Anonmoly237.7571
Mean Motion15.6070643
Decay Rate0.00053119
L11 53462U 98067UB 22324.92404113 .00053119 00000+0 62798-3 0 9990
L22 53462 51.6370 276.4294 0009677 122.4360 237.7571 15.60706430 15656



Live tracking and technical data element details for HSU-SAT1 (NORAD 53462). HSU-SAT1 can be tracked NOW for your location showing map with azimuth and elevation plus other details from your city location.







IsCatalogInMostPopularTable: catalog: 53462, numindb: 6
Update: records affected: 1



GetName: 53462 HSU-SAT1

Hit Count: updated at: Thu, 08 Dec 2022 10:09:01 GMT